| time (UTC) | temp F | wind direction | speed MPH | gust MPH | rain 1hr in | rain 24hr in | rain mn in | humidity % | barometer mb |
| 20260505193004 | 66 | 143 | 23.0 | 33.0 | 0.00 | 0.26 | 0.00 | 30 | 985.2 |
| 20260505191504 | 66 | 116 | 17.0 | 29.0 | 0.00 | 0.26 | 0.00 | 31 | 985.2 |
| 20260505190004 | 64 | 121 | 12.0 | 25.0 | 0.00 | 0.26 | 0.00 | 21 | 984.4 |
| 20260505184504 | 65 | 134 | 11.0 | 23.0 | 0.00 | 0.26 | 0.00 | 29 | 984.7 |
| 20260505183004 | 64 | 172 | 10.0 | 22.0 | 0.00 | 0.26 | 0.00 | 29 | 984.4 |
| 20260505181504 | 65 | 175 | 16.0 | 30.0 | 0.00 | 0.26 | 0.00 | 38 | 984.6 |
| 20260505180004 | 64 | 124 | 23.0 | 30.0 | 0.00 | 0.26 | 0.00 | 38 | 984.2 |
| 20260505174504 | 62 | 137 | 7.0 | 17.0 | 0.00 | 0.26 | 0.00 | 32 | 984.0 |
| 20260505173004 | 61 | 216 | 18.0 | 30.0 | 0.00 | 0.26 | 0.00 | 34 | 983.7 |
| 20260505171504 | 61 | 203 | 9.0 | 21.0 | 0.00 | 0.26 | 0.00 | 38 | 983.9 |
| 20260505170004 | 60 | 229 | 15.0 | 31.0 | 0.00 | 0.26 | 0.00 | 43 | 984.1 |
| 20260505164503 | 59 | 196 | 19.0 | 26.0 | 0.00 | 0.26 | 0.00 | 44 | 983.8 |
| 20260505163024 | 57 | 247 | 8.0 | 20.0 | 0.00 | 0.26 | 0.00 | 42 | 983.9 |
| 20260505161504 | 58 | 248 | 24.0 | 34.0 | 0.00 | 0.26 | 0.00 | 54 | 984.0 |
| 20260505153004 | 53 | 206 | 9.0 | 16.0 | 0.00 | 0.26 | 0.00 | 51 | 984.2 |
| 20260505151524 | 53 | 194 | 18.0 | 25.0 | 0.00 | 0.26 | 0.00 | 58 | 984.4 |
| 20260505041503 | 41 | 133 | 4.0 | 11.0 | 0.00 | 0.26 | 0.26 | 68 | 1010.1 |
| 20260505040004 | 43 | 126 | 12.0 | 18.0 | 0.00 | 0.26 | 0.26 | 75 | 1011.0 |
| 20260505034503 | 45 | 192 | 7.0 | 16.0 | 0.00 | 0.26 | 0.26 | 75 | 1012.0 |
| 20260505033024 | 45 | 138 | 5.0 | 10.0 | 0.00 | 0.26 | 0.26 | 67 | 1012.2 |
| 20260505031503 | 46 | 105 | 4.0 | 11.0 | 0.00 | 0.26 | 0.26 | 65 | 1012.8 |
| 20260505030004 | 47 | 172 | 11.0 | 19.0 | 0.00 | 0.26 | 0.26 | 64 | 1013.1 |
| 20260505024504 | 48 | 178 | 10.0 | 16.0 | 0.00 | 0.26 | 0.26 | 58 | 1013.2 |
| 20260505023004 | 48 | 74 | 3.0 | 7.0 | 0.00 | 0.26 | 0.26 | 53 | 1013.7 |
| 20260505021504 | 51 | 197 | 9.0 | 14.0 | 0.00 | 0.26 | 0.26 | 57 | 1014.4 |
| 20260505020004 | 52 | 140 | 14.0 | 25.0 | 0.00 | 0.26 | 0.26 | 55 | 1014.6 |
| 20260505014504 | 52 | 101 | 2.0 | 13.0 | 0.00 | 0.26 | 0.26 | 50 | 1015.3 |
| 20260505013003 | 54 | 200 | 16.0 | 25.0 | 0.00 | 0.26 | 0.26 | 50 | 1015.1 |
| 20260505011503 | 54 | 200 | 12.0 | 21.0 | 0.00 | 0.26 | 0.26 | 44 | 1015.4 |
| 20260505010024 | 55 | 153 | 9.0 | 18.0 | 0.00 | 0.26 | 0.26 | 42 | 1015.8 |
| 20260505004503 | 58 | 125 | 16.0 | 26.0 | 0.06 | 0.26 | 0.26 | 48 | 1016.2 |
| 20260505003004 | 59 | 141 | 19.0 | 26.0 | 0.07 | 0.26 | 0.26 | 49 | 1016.7 |
| 20260505001507 | 58 | 63 | 5.0 | 15.0 | 0.10 | 0.26 | 0.26 | 35 | 1016.3 |
| 20260505000004 | 61 | 148 | 19.0 | 28.0 | 0.14 | 0.26 | 0.26 | 44 | 1017.1 |
| 20260504234504 | 60 | 124 | 2.0 | 14.0 | 0.09 | 0.20 | 0.20 | 34 | 1017.1 |
| 20260504233025 | 62 | 77 | 14.0 | 23.0 | 0.14 | 0.19 | 0.20 | 35 | 1017.0 |
| 20260504231504 | 63 | 182 | 12.0 | 24.0 | 0.15 | 0.16 | 0.16 | 36 | 1017.4 |
| 20260504230005 | 62 | 208 | 3.0 | 20.0 | 0.13 | 0.12 | 0.12 | 25 | 1017.1 |
| 20260504224504 | 64 | 127 | 19.0 | 31.0 | 0.11 | 0.20 | 0.12 | 34 | 1017.3 |
| 20260504223004 | 65 | 139 | 20.0 | 37.0 | 0.06 | 0.23 | 0.06 | 34 | 1017.6 |
| 20260504221504 | 64 | 153 | 11.0 | 25.0 | 0.01 | 0.23 | 0.01 | 25 | 1017.4 |
| 20260504220004 | 66 | 160 | 10.0 | 24.0 | 0.00 | 0.27 | 0.00 | 30 | 1017.8 |
| 20260504214503 | 67 | 208 | 12.0 | 28.0 | 0.00 | 0.34 | 0.00 | 32 | 1017.9 |
| 20260504213004 | 66 | 186 | 23.0 | 38.0 | 0.00 | 0.43 | 0.00 | 29 | 1017.5 |
| 20260504211504 | 67 | 206 | 18.0 | 34.0 | 0.00 | 0.48 | 0.00 | 28 | 1017.5 |
| 20260504210004 | 68 | 175 | 23.0 | 34.0 | 0.00 | 0.52 | 0.00 | 33 | 1017.9 |
| 20260504204504 | 68 | 179 | 24.0 | 38.0 | 0.00 | 0.52 | 0.00 | 34 | 1018.0 |
| 20260504203003 | 66 | 203 | 11.0 | 22.0 | 0.00 | 0.52 | 0.00 | 24 | 1017.5 |
| 20260504201503 | 68 | 195 | 21.0 | 35.0 | 0.00 | 0.52 | 0.00 | 32 | 1017.9 |
| 20260504200003 | 67 | 200 | 21.0 | 33.0 | 0.00 | 0.52 | 0.00 | 29 | 1017.6 |
| 20260504194504 | 67 | 226 | 24.0 | 37.0 | 0.00 | 0.52 | 0.00 | 32 | 1017.7 |